This is the latest recevied weather packets stored in our database for station/object W9PEM-13. If no packets are shown the sender has not sent any weather packets the latest 10 day(s).
| Time | Temp. | Humidity | Pressure | Rain* | Wind** | Luminosity | Snow |
|---|---|---|---|---|---|---|---|
| 1777977811 | 5.56° C | 57% | 976.3 hPa | 0 mm | - | 3 W/m² | - |
| 1777977211 | 6.11° C | 56% | 976.1 hPa | 0 mm | - | 1 W/m² | - |
| 1777976612 | 6.11° C | 55% | 976 hPa | 0 mm | - | 0 W/m² | - |
| 1777976011 | 6.11° C | 56% | 975.9 hPa | 0 mm | - | 0 W/m² | - |
| 1777975412 | 6.67° C | 54% | 975.7 hPa | 0 mm | - | 0 W/m² | - |
| 1777974811 | 6.67° C | 54% | 975.8 hPa | 0 mm | - | 0 W/m² | - |
| 1777974212 | 6.67° C | 53% | 975.9 hPa | 0 mm | - | 0 W/m² | - |
| 1777973611 | 7.22° C | 52% | 975.9 hPa | 0 mm | - | 0 W/m² | - |
| 1777973012 | 7.22° C | 53% | 975.6 hPa | 0 mm | - | 0 W/m² | - |
| 1777972412 | 7.22° C | 52% | 975.4 hPa | 0 mm | - | 0 W/m² | - |
| 1777971811 | 7.22° C | 53% | 975.3 hPa | 0 mm | - | 0 W/m² | - |
| 1777971211 | 7.22° C | 51% | 975 hPa | 0 mm | - | 0 W/m² | - |
| 1777970611 | 7.78° C | 51% | 974.8 hPa | 0 mm | - | 0 W/m² | - |
| 1777970011 | 7.78° C | 51% | 974.5 hPa | 0 mm | - | 0 W/m² | - |
| 1777969412 | 7.78° C | 52% | 974.2 hPa | 0 mm | - | 0 W/m² | - |
| 1777968811 | 7.78° C | 52% | 973.8 hPa | 0 mm | - | 0 W/m² | - |
| 1777968211 | 7.78° C | 52% | 973.5 hPa | 0 mm | - | 0 W/m² | - |
| 1777967611 | 8.33° C | 51% | 973.5 hPa | 0 mm | - | 0 W/m² | - |
| 1777967013 | 8.33° C | 52% | 973.5 hPa | 0 mm | - | 0 W/m² | - |
| 1777966412 | 8.89° C | 52% | 973.5 hPa | 0 mm | - | 0 W/m² | - |
| 1777965812 | 8.89° C | 51% | 973.4 hPa | 0 mm | - | 0 W/m² | - |
| 1777965211 | 8.89° C | 51% | 973.4 hPa | 0 mm | - | 0 W/m² | - |
| 1777964612 | 9.44° C | 52% | 973.2 hPa | 0 mm | - | 0 W/m² | - |
| 1777964011 | 9.44° C | 51% | 973.1 hPa | 0 mm | - | 0 W/m² | - |
| 1777963411 | 10° C | 51% | 972.9 hPa | 0 mm | - | 0 W/m² | - |
* Rain latest hour (hover to see other rain measurements)
** Current wind speed in m/s (hover to see current wind gust speed)